Location: Fouquenies
(49.4624°N, 2.0492°E)
Time: 18:48:38
(UTC+00:00)

CZ-4 R/B - Pass Details

Date: 03 February 2023
Orbit: 526 x 587 km, 97.7° (Epoch: 26 March)

Event Time Altitude Azimuth Distance (km) Brightness Sun altitude
Rises 18:03:16 0° 139° (SE) 2,800 4.6 -12.0°
Reaches altitude 10° 18:05:35 10° 129° (SE) 1,897 3.7 -12.4°
Maximum altitude 18:09:13 31° 67° (ENE) 1,030 2.1 -13.0°
Drops below altitude 10° 18:12:49 10° 5° (N) 1,881 3.9 -13.6°
Sets 18:15:07 0° 355° (N) 2,772 4.9 -13.9°
